Hourly Data Report for October 11, 2013

All times are specified in Local Standard Time (LST). Add 1 hour to adjust for Daylight Saving Time where and when it is observed.

ARVIAT A
NUNAVUT

61°05'38.000" N
94°04'18.000" W
10.40 m
2300427
71174
YEK

Download Data

Hourly Data (October 2013)
Hourly Data Report for October 11, 2013
Temp Definition
°C
Dew Point Temp Definition
°C
Rel Hum Definition
%
Wind Dir Definition
10's deg

Wind Spd Definition
km/h
Visibility Definition
km
Stn Press Definition
kPa
Hmdx Definition


Wind Chill Definition


Weather Definition


TIME
00:00 Legend Double Dagger 4.8 3.9 94 18 35 16.1 100.89     LegendNANA
01:00 Legend Double Dagger 4.8 3.8 93 18 33 16.1 100.90     LegendNANA
02:00 Legend Double Dagger 4.7 3.7 93 19 32 16.1 100.88     LegendNANA
03:00 Legend Double Dagger 4.4 3.8 96 18 28 16.1 100.88     LegendNANA
04:00 Legend Double Dagger 4.8 4.0 94 19 28 16.1 100.90     LegendNANA
05:00 Legend Double Dagger 4.5 3.9 96 18 24 16.1 100.89     LegendNANA
06:00 Legend Double Dagger 4.5 3.9 96 18 26 16.1 100.89     LegendNANA
07:00 Legend Double Dagger 4.7 4.0 95 19 28 16.1 100.91     LegendNANA
08:00 Legend Double Dagger 4.6 3.9 95 19 30 16.1 100.95     LegendNANA
09:00 Legend Double Dagger 4.6 4.0 96 19 22 16.1 100.92     LegendNANA
10:00 Legend Double Dagger 4.7 4.1 96 18 35 16.1 100.97     LegendNANA
11:00 Legend Double Dagger 4.7 4.3 97 18 32 16.1 100.97     LegendNANA
12:00 Legend Double Dagger 4.6 4.3 98 18 37 11.3 100.93     LegendNANA
13:00 Legend Double Dagger 4.4 4.3 99 18 30 1.2 100.92     LegendNANA
14:00 Legend Double Dagger 4.3 4.2 99 19 26 0.6 100.91     LegendNANA
15:00 Legend Double Dagger 4.2 4.2 100 18 33 0.4 100.90     LegendNANA
16:00 Legend Double Dagger 4.2 4.2 100 19 30 0.6 100.88     LegendNANA
17:00 Legend Double Dagger 3.7 3.7 100 19 22 0.4 100.85     LegendNANA
18:00 Legend Double Dagger 3.7 3.7 100 19 24 0.2 100.88     LegendNANA
19:00 Legend Double Dagger 3.5 3.5 100 19 18 0.6 100.89     LegendNANA
20:00 Legend Double Dagger 3.4 3.4 100 20 11 0.6 100.86     LegendNANA
21:00 Legend Double Dagger 3.4 3.4 100 18 9 0.6 100.82     LegendNANA
22:00 Legend Double Dagger 3.4 3.4 100 19 5 0.6 100.78     LegendNANA
23:00 Legend Double Dagger 3.4 3.4 100 17 5 1.0 100.77     LegendNANA

Notes on Data Quality.

Legend

  • E = Estimated
  • M = Missing
  • NA = Not Available
  • ‡ = Partner data that is not subject to review by the National Climate Archives
Date modified: